Location: Kitchener
(43.4500°N, 80.5000°W)
Time: 18:32:09
(UTC-04:00)

Cosmos 1939 Rocket - Visible Passes

Search period start: 01 April 2015 00:00
Search period end: 11 April 2015 00:00
Orbit: 535 x 593 km, 97.6° (Epoch: 01 April)

Date Brightness Start Highest point End Pass type
(mag) Time Alt. Az. Time Alt. Az. Time Alt. Az.
01 Apr 3.9 21:12:31 27° E 21:13:28 30° ENE 21:17:08 10° N visible
01 Apr 4.9 22:48:32 24° W 22:48:32 24° W 22:51:54 10° NW visible
02 Apr 3.9 21:12:32 26° E 21:13:35 30° ENE 21:17:15 10° N visible
02 Apr 4.9 22:48:33 24° W 22:48:39 24° W 22:52:01 10° NW visible
03 Apr 3.9 21:12:34 26° E 21:13:42 30° ENE 21:17:21 10° N visible
03 Apr 4.9 22:48:34 24° W 22:48:45 24° W 22:52:07 10° NW visible
04 Apr 3.9 21:12:34 25° E 21:13:48 30° ENE 21:17:27 10° N visible
04 Apr 4.9 22:48:35 24° W 22:48:52 24° W 22:52:13 10° NW visible
05 Apr 3.9 21:12:35 25° ESE 21:13:54 30° ENE 21:17:33 10° N visible
05 Apr 4.9 22:48:36 23° WSW 22:48:58 24° W 22:52:18 10° NW visible
06 Apr 3.9 21:12:35 24° ESE 21:13:59 30° ENE 21:17:38 10° N visible
06 Apr 4.9 22:48:36 23° WSW 22:49:04 24° W 22:52:23 10° NW visible
07 Apr 3.9 21:12:35 23° ESE 21:14:05 30° ENE 21:17:43 10° N visible
07 Apr 4.9 22:48:36 23° WSW 22:49:09 23° W 22:52:28 10° NW visible
08 Apr 3.9 21:12:36 23° ESE 21:14:09 30° ENE 21:17:47 10° N visible
08 Apr 4.9 22:48:35 23° WSW 22:49:14 23° W 22:52:32 10° NW visible
09 Apr 3.9 21:12:35 22° ESE 21:14:14 30° ENE 21:17:51 10° N visible
09 Apr 4.9 22:48:35 22° WSW 22:49:18 23° W 22:52:36 10° NW visible
10 Apr 3.9 21:12:35 22° ESE 21:14:18 30° ENE 21:17:55 10° N visible
10 Apr 4.9 22:48:34 22° WSW 22:49:22 23° W 22:52:39 10° NW visible
